User: anonymous   Login
Location: Unspecified
(0.0000°N, 0.0000°E)
Time: 18:11:14
(UTC+00:00)
Language:

STARLINK-5757 - Orbit

View from above orbital plane
View from above orbital plane
View from above satellite
View from above satellite

Ground track
Ground track

The orbit is defined by the following mean orbital elements,

1 55580U          26145.35395102 +.00000000 +00000-0 +25373-4 0 00006
2 55580  43.0025 266.5888 0001413 268.3358  91.7332 15.27577318    07
Epoch (UTC): 25 May 2026 08:29:41
Eccentricity: 0.0001413
inclination: 43.0025°
perigee height: 482 km
apogee height: 484 km
right ascension of ascending node: 266.5888°
argument of perigee: 268.3358°
revolutions per day: 15.27577318
mean anomaly at epoch: 91.7332°

The dashed part of the orbit path shows where the satellite is in the earth's shadow,  

DLR